GW4210 Weather Reports


Display with metric or nautical units.
time (UTC)temp
F
wind
direction
speed
MPH
gust
MPH
rain 1hr
in
rain 24hr
in
rain mn
in
humidity
%
barometer
mb
20260504141024 81 40 1.0 1.0 0.00 0.00 0.00 76 1012.3
20260504140524 81 0 0.0 2.0 0.00 0.00 0.00 74 1012.2
20260504130525 83 118 2.0 3.0 0.00 0.00 0.00 70 1011.6
20260504110527 85 150 10.0 15.0 0.00 0.00 0.00 63 1010.5
20260504100524 88 136 10.0 14.0 0.00 0.00 0.00 59 1009.6
20260504081542 94 142 10.0 17.0 0.00 0.00 0.00 54 1008.8
20260504081028 94 128 11.0 18.0 0.00 0.00 0.00 52 1008.8
20260504080525 94 151 12.0 18.0 0.00 0.00 0.00 54 1008.9
20260504050521 94 132 7.0 12.0 0.00 0.00 0.00 53 1010.4
20260504050105 94 162 8.0 13.0 0.00 0.00 0.00 56 1010.5
20260504045524 94 141 8.0 13.0 0.00 0.00 0.00 51 1010.5
20260504045025 94 176 6.0 15.0 0.00 0.00 0.00 54 1010.7
20260504044536 94 176 9.0 15.0 0.00 0.00 0.00 55 1010.8
20260504044022 94 101 10.0 13.0 0.00 0.00 0.00 53 1010.8
20260504043524 94 153 6.0 11.0 0.00 0.00 0.00 55 1010.9
20260504043041 93 169 5.0 12.0 0.00 0.00 0.00 53 1011.0
20260504042520 93 173 7.0 12.0 0.00 0.00 0.00 53 1011.2
20260504042020 93 167 6.0 11.0 0.00 0.00 0.00 54 1011.2
20260504041540 93 143 7.0 13.0 0.00 0.00 0.00 53 1011.4
20260504041024 94 142 3.0 13.0 0.00 0.00 0.00 53 1011.5
20260504040521 94 165 4.0 12.0 0.00 0.00 0.00 53 1011.6
20260504040043 94 111 5.0 12.0 0.00 0.00 0.00 53 1011.5
20260504035521 93 118 8.0 12.0 0.00 0.00 0.00 55 1011.6
20260504035023 93 156 7.0 12.0 0.00 0.00 0.00 53 1011.6
20260504034548 94 182 4.0 13.0 0.00 0.00 0.00 58 1011.8
20260504034027 94 84 5.0 13.0 0.00 0.00 0.00 54 1012.0
20260504033530 93 115 4.0 15.0 0.00 0.00 0.00 53 1012.1
20260504033036 94 113 4.0 15.0 0.00 0.00 0.00 54 1012.2
20260504032521 93 97 11.0 15.0 0.00 0.00 0.00 55 1012.4
20260504032021 93 69 9.0 15.0 0.00 0.00 0.00 53 1012.4
20260504031602 93 104 9.0 14.0 0.00 0.00 0.00 53 1012.3
20260504031023 93 103 5.0 12.0 0.00 0.00 0.00 56 1012.3
20260504030525 93 115 4.0 11.0 0.00 0.00 0.00 56 1012.3
20260504030042 94 26 4.0 11.0 0.00 0.00 0.00 56 1012.5
20260504025525 94 82 4.0 11.0 0.00 0.00 0.00 55 1012.5
20260504025023 93 55 4.0 12.0 0.00 0.00 0.00 55 1012.6
20260504024543 93 41 5.0 12.0 0.00 0.00 0.00 58 1012.8
20260504024026 91 98 3.0 10.0 0.00 0.00 0.00 59 1012.8
20260504023522 91 139 6.0 11.0 0.00 0.00 0.00 57 1012.9
20260504023037 91 132 7.0 11.0 0.00 0.00 0.00 60 1013.0
20260504022523 90 122 4.0 10.0 0.00 0.00 0.00 59 1013.1
20260504022021 90 156 3.0 8.0 0.00 0.00 0.00 56 1013.2
20260504021542 91 126 3.0 9.0 0.00 0.00 0.00 58 1013.2
20260504021024 90 332 2.0 9.0 0.00 0.00 0.00 58 1013.2
20260504020523 89 161 3.0 12.0 0.00 0.00 0.00 58 1013.2
20260504020041 89 85 2.0 2.0 0.00 0.00 0.00 59 1013.3
20260504015524 89 144 5.0 9.0 0.00 0.00 0.00 62 1013.3
20260504015024 89 159 3.0 7.0 0.00 0.00 0.00 60 1013.3
20260504014543 89 178 3.0 8.0 0.00 0.00 0.00 62 1013.3
20260504014023 89 112 1.0 8.0 0.00 0.00 0.00 62 1013.3
20260504013522 89 96 2.0 8.0 0.00 0.00 0.00 63 1013.3
20260504013041 88 165 1.0 5.0 0.00 0.00 0.00 64 1013.2
20260504012522 88 173 3.0 6.0 0.00 0.00 0.00 66 1013.4
20260504012023 87 94 2.0 6.0 0.00 0.00 0.00 64 1013.4
20260504011537 87 183 4.0 6.0 0.00 0.00 0.00 65 1013.4
20260504011021 87 202 2.0 5.0 0.00 0.00 0.00 64 1013.4
20260504010523 87 174 2.0 5.0 0.00 0.00 0.00 67 1013.4
20260504010046 86 178 2.0 5.0 0.00 0.00 0.00 65 1013.4
20260504005524 86 161 3.0 6.0 0.00 0.00 0.00 65 1013.4
20260504005021 86 191 4.0 6.0 0.00 0.00 0.00 67 1013.4
20260504004541 86 153 2.0 7.0 0.00 0.00 0.00 67 1013.4
20260504004021 85 153 5.0 7.0 0.00 0.00 0.00 67 1013.4
20260504003522 85 192 4.0 7.0 0.00 0.00 0.00 70 1013.4
20260504003045 85 165 3.0 7.0 0.00 0.00 0.00 70 1013.3
20260504002523 85 195 4.0 7.0 0.00 0.00 0.00 69 1013.4
20260504002020 85 173 3.0 7.0 0.00 0.00 0.00 72 1013.3
20260504001556 85 159 4.0 7.0 0.00 0.00 0.00 72 1013.3
20260504001022 84 156 3.0 8.0 0.00 0.00 0.00 72 1013.2
20260504000521 84 111 4.0 8.0 0.00 0.00 0.00 70 1013.1
20260504000037 84 146 1.0 6.0 0.00 0.00 0.00 73 1013.0
20260503235521 84 159 3.0 6.0 0.00 0.00 0.00 74 1013.0
20260503235021 83 115 2.0 4.0 0.00 0.00 0.00 76 1013.0
20260503234541 83 136 2.0 4.0 0.00 0.00 0.00 77 1012.9
20260503234023 83 115 1.0 3.0 0.00 0.00 0.00 77 1012.8
20260503233521 83 107 1.0 4.0 0.00 0.00 0.00 77 1012.8
20260503233040 82 97 2.0 4.0 0.00 0.00 0.00 78 1012.7
20260503232523 82 115 1.0 3.0 0.00 0.00 0.00 78 1012.7
20260503232023 82 102 1.0 3.0 0.00 0.00 0.00 79 1012.7
20260503231548 81 103 1.0 3.0 0.00 0.00 0.00 80 1012.6
20260503231024 81 0 0.0 3.0 0.00 0.00 0.00 81 1012.6
20260503230522 80 0 1.0 3.0 0.00 0.00 0.00 83 1012.6
20260503230038 80 352 1.0 3.0 0.00 0.00 0.00 84 1012.5
20260503225528 79 0 0.0 2.0 0.00 0.00 0.00 85 1012.5
20260503225025 79 0 0.0 2.0 0.00 0.00 0.00 87 1012.4
20260503224536 79 12 1.0 2.0 0.00 0.00 0.00 88 1012.4
20260503224025 78 343 1.0 2.0 0.00 0.00 0.00 88 1012.4
20260503223524 78 0 0.0 2.0 0.00 0.00 0.00 87 1012.3
20260503223043 78 0 0.0 1.0 0.00 0.00 0.00 87 1012.2
20260503222524 78 109 0.0 1.0 0.00 0.00 0.00 88 1012.2
20260503222020 77 0 0.0 2.0 0.00 0.00 0.00 88 1012.1
20260503221540 77 109 1.0 2.0 0.00 0.00 0.00 88 1012.0
20260503221020 77 109 0.0 2.0 0.00 0.00 0.00 89 1012.0
20260503220526 77 0 0.0 2.0 0.00 0.00 0.00 89 1012.0
20260503220040 77 0 0.0 2.0 0.00 0.00 0.00 89 1011.9
20260503215521 77 109 0.0 2.0 0.00 0.00 0.00 90 1011.9
20260503215023 77 0 0.0 2.0 0.00 0.00 0.00 90 1011.9
20260503214551 77 109 0.0 2.0 0.00 0.00 0.00 89 1011.9
20260503214024 77 109 0.0 2.0 0.00 0.00 0.00 89 1011.8
20260503213524 77 109 0.0 2.0 0.00 0.00 0.00 88 1011.8
20260503213102 77 0 0.0 2.0 0.00 0.00 0.00 88 1011.8
20260503212521 77 0 0.0 2.0 0.00 0.00 0.00 88 1011.9
20260503212024 77 109 0.0 2.0 0.00 0.00 0.00 88 1011.8
20260503211602 77 109 0.0 3.0 0.00 0.00 0.00 88 1011.8
20260503211026 77 86 1.0 3.0 0.00 0.00 0.00 88 1011.8
20260503210521 77 90 1.0 2.0 0.00 0.00 0.00 88 1011.8
20260503210040 77 95 1.0 2.0 0.00 0.00 0.00 88 1011.7
20260503205523 77 95 0.0 2.0 0.00 0.00 0.00 88 1011.7
20260503205024 76 0 0.0 2.0 0.00 0.00 0.00 88 1011.6
20260503204552 76 0 0.0 2.0 0.00 0.00 0.00 87 1011.6
20260503204020 77 92 0.0 3.0 0.00 0.00 0.00 87 1011.5
20260503203520 77 51 1.0 4.0 0.00 0.00 0.00 87 1011.5
20260503203042 77 64 1.0 4.0 0.00 0.00 0.00 87 1011.5
20260503202521 77 52 1.0 4.0 0.00 0.00 0.00 87 1011.5
20260503202021 77 34 1.0 3.0 0.00 0.00 0.00 86 1011.4
20260503201541 77 31 1.0 2.0 0.00 0.00 0.00 86 1011.5
20260503201022 77 14 1.0 2.0 0.00 0.00 0.00 87 1011.4
20260503200521 77 46 1.0 2.0 0.00 0.00 0.00 87 1011.4
20260503200041 77 46 0.0 2.0 0.00 0.00 0.00 87 1011.4
20260503195523 77 0 0.0 2.0 0.00 0.00 0.00 88 1011.3
20260503195021 77 0 0.0 2.0 0.00 0.00 0.00 87 1011.4
20260503194540 77 0 0.0 2.0 0.00 0.00 0.00 88 1011.3
20260503194021 77 0 0.0 2.0 0.00 0.00 0.00 88 1011.2
20260503193521 77 46 0.0 2.0 0.00 0.00 0.00 88 1011.0
20260503193046 77 46 0.0 2.0 0.00 0.00 0.00 87 1011.1
20260503192522 77 0 0.0 2.0 0.00 0.00 0.00 88 1011.0
20260503192022 77 0 0.0 0.0 0.00 0.00 0.00 88 1011.1
20260503191556 77 0 0.0 0.0 0.00 0.00 0.00 87 1011.0
20260503191022 77 0 0.0 2.0 0.00 0.00 0.00 87 1011.0
20260503190521 77 0 0.0 2.0 0.00 0.00 0.00 87 1011.0
20260503190041 77 0 0.0 2.0 0.00 0.00 0.00 87 1011.0
20260503185522 77 46 0.0 2.0 0.00 0.00 0.00 87 1011.0
20260503185022 77 46 0.0 2.0 0.00 0.00 0.00 87 1011.1
20260503184551 77 0 0.0 2.0 0.00 0.00 0.00 87 1011.1
20260503184022 77 0 0.0 2.0 0.00 0.00 0.00 86 1011.1
20260503183522 77 0 0.0 2.0 0.00 0.00 0.00 86 1011.1
20260503183046 77 0 0.0 2.0 0.00 0.00 0.00 86 1011.2
20260503182520 77 46 1.0 2.0 0.00 0.00 0.00 85 1011.1
20260503182021 77 273 0.0 2.0 0.00 0.00 0.00 86 1011.1
20260503181540 77 0 0.0 2.0 0.00 0.00 0.00 86 1011.1
20260503181022 77 273 0.0 2.0 0.00 0.00 0.00 86 1011.1
20260503180525 77 0 0.0 2.0 0.00 0.00 0.00 86 1011.0
20260503180040 77 0 0.0 2.0 0.00 0.00 0.00 87 1011.0
20260503175524 78 273 0.0 2.0 0.00 0.00 0.00 87 1011.1
20260503175024 78 0 0.0 2.0 0.00 0.00 0.00 88 1011.1
20260503174551 78 273 1.0 2.0 0.00 0.00 0.00 87 1011.1
20260503174021 78 352 0.0 2.0 0.00 0.00 0.00 86 1011.2
20260503173521 78 352 0.0 2.0 0.00 0.00 0.00 86 1011.2
20260503173043 78 352 0.0 2.0 0.00 0.00 0.00 85 1011.2
20260503172523 78 352 0.0 2.0 0.00 0.00 0.00 85 1011.2
20260503172020 78 0 0.0 2.0 0.00 0.00 0.00 85 1011.2
20260503171541 78 0 0.0 2.0 0.00 0.00 0.00 84 1011.2
20260503171029 78 352 0.0 2.0 0.00 0.00 0.00 85 1011.3
20260503170523 78 352 0.0 2.0 0.00 0.00 0.00 85 1011.2
20260503150526 81 5 1.0 2.0 0.00 0.00 0.00 76 1011.8